[Iaude] MPEC V207: 2023 VE7 [a=1.98,e=0.69,i=8.6,H=24.9]
    mpec at marsden.cfa.harvard.edu 
    mpec at marsden.cfa.harvard.edu
       
    Sat Nov 11 16:37:56 EST 2023
    
    
  
M.P.E.C. 2023-V207                            Issued 2023 November 11, 21:36 UT
     The Minor Planet Electronic Circulars contain information on unusual
         minor planets, routine data on comets and natural satellites,
         and occasional editorial announcements.  They are published
    on behalf of Division F of the International Astronomical Union by the
          Minor Planet Center, Smithsonian Astrophysical Observatory,
                          Cambridge, MA 02138, U.S.A.
			  
             Prepared using the Tamkin Foundation Computer Network
                              MPC at CFA.HARVARD.EDU
            URL https://www.minorplanetcenter.net/    ISSN 1523-6714
                                    2023 VE7                                    
Observations:
     K23V07E* C2023 11 10.36306703 01 30.367+22 17 04.98         20.71wXEV207F52
     K23V07E  C2023 11 10.37818803 01 25.763+22 18 18.05         20.71wXEV207F52
     K23V07E  C2023 11 10.39021303 01 22.082+22 19 16.21         20.67wXEV207F52
     K23V07E 1C2023 11 10.79332 02 59 27.76 +22 51 58.6          20.8 VXEV207033
     K23V07E 1C2023 11 10.79442 02 59 27.42 +22 52 04.4          20.5 VXEV207033
     K23V07E 1C2023 11 10.79551 02 59 27.07 +22 52 10.5          20.4 VXEV207033
     K23V07E KC2023 11 10.86123602 59 06.706+22 57 53.50         20.6 GVEV207J95
     K23V07E KC2023 11 10.87897002 59 01.020+22 59 27.85         20.8 GVEV207J95
     K23V07E KC2023 11 10.88669402 58 58.546+23 00 08.86         20.6 GVEV207J95
     K23V07E KC2023 11 10.92753 02 58 44.63 +23 03 56.5                VEV207104
     K23V07E $C2023 11 10.93359602 58 44.828+23 04 45.97         20.7 GVEV207J04
     K23V07E $C2023 11 10.93793002 58 43.361+23 05 09.35         20.7 GVEV207J04
     K23V07E KC2023 11 10.93858 02 58 40.91 +23 04 55.8          20.6 GVEV207104
     K23V07E KC2023 11 11.01909 02 58 13.73 +23 12 03.7          20.6 GVEV207204
     K23V07E KC2023 11 11.04071 02 58 06.36 +23 13 59.5                VEV207204
     K23V07E KC2023 11 11.17409802 57 26.80 +23 26 19.8          20.7 GVEV207H21
     K23V07E KC2023 11 11.17689802 57 25.82 +23 26 35.7          20.7 GVEV207H21
     K23V07E KC2023 11 11.17969802 57 24.83 +23 26 51.4          20.5 GVEV207H21
     K23V07E KC2023 11 11.18249702 57 23.85 +23 27 07.0          20.7 GVEV207H21
     K23V07E KC2023 11 11.18493502 57 22.99 +23 27 20.7          20.7 GVEV207H21
     K23V07E IC2023 11 11.85826202 53 25.11 +24 33 50.3          20.5 GVEV207L01
     K23V07E KC2023 11 11.87511002 53 18.25 +24 35 38.7          20.3 GVEV207L01
     K23V07E KC2023 11 11.87763802 53 17.20 +24 35 55.1          20.2 GVEV207L01
     K23V07E KC2023 11 11.88016702 53 16.15 +24 36 11.1          20.2 GVEV207L01
Observer details:
033 Karl Schwarzschild Observatory, Tautenburg.  Observers S. Melnikov, C.
    Hogner, F. Ludwig, M. Hartmann, B. Stecklum.  Measurer B. Stecklum.
    1.34-m f/3 Schmidt + CCD.
104 San Marcello Pistoiese.  Observers P. Bacci, M. Maestripieri.  Measurer P.
    Bacci.  0.60-m f/4.0 reflector + CCD.
204 Schiaparelli Observatory.  Observers L. Buzzi, G. Galli.  0.84-m f/3.5
    reflector + CCD.
F52 Pan-STARRS 2, Haleakala.  Observers J. Bulger, T. Lowe, P. Minguez, A.
    Schultz, I. Smith.  Measurers K. Chambers, T. de Boer, J. Fairlamb, H.
    Gao, M. Huber, C.-C. Lin, E. Magnier, Y. Ramanjooloo, R. Wainscoat, R.
    Weryk.  1.8-m Ritchey-Chretien + CCD.
H21 Astronomical Research Observatory, Westfield.  Observer R. Holmes.
    Measurers T. Linder, R. Holmes, L. Horn.  0.76-m f/3.0 astrograph + CCD.
J04 ESA Optical Ground Station, Tenerife.  Observers D. Abreu, F. Ocana, M.
    Micheli, L. Conversi.  Measurers F. Ocana, M. Micheli, R. Kresken.
    1.0-m f/4.4 reflector + CCD.
J95 Great Shefford.  Observer P. Birtwhistle.  0.41-m f/6.3 Schmidt-Cassegrain
    + CCD.
L01 Visnjan Observatory, Tican.  Observer K. Korlevic.  1.0-m f/2.9 reflector
    + CCD.
Orbital elements:
2023 VE7                                                 Earth MOID = 0.0132 AU
Epoch 2023 Sept. 13.0 TT = JDT 2460200.5                MPC                     
M 319.25848              (2000.0)            P               Q                  
n   0.35502771     Peri.   98.11149     -0.78258958     -0.61367470             
a   1.9752764      Node    44.11383     +0.49537735     -0.71570448             
e   0.6854701      Incl.    8.64876     +0.37703425     -0.33342234             
P   2.78           H   24.90          G   0.15           U   9                  
Residuals in seconds of arc
231110 F52  0.1-  0.1+    231110 J95  0.2+  0.4-    231111 H21  0.1+  0.3+
231110 F52  0.0   0.1-    231110 104 (1.4+  1.0-)   231111 H21  0.1+  0.3+
231110 F52  0.1+  0.1-    231110 J04  0.1+  0.1+    231111 H21  0.3+  0.2+
231110 033  0.2-  0.5+    231110 J04  0.0   0.0     231111 H21  0.4+  0.3+
231110 033  0.1-  0.5+    231110 104 (1.3+  0.5-)   231111 L01  0.3-  0.2-
231110 033  0.3-  0.8+    231111 204  0.2+  0.3+    231111 L01  0.1+  0.1-
231110 J95  0.5-  0.2-    231111 204  0.0   0.5+    231111 L01  0.0   0.1+
231110 J95  0.2-  0.2-    231111 H21  0.0   0.1+    231111 L01  0.2-  0.2-
Ephemeris:
2023 VE7                 a,e,i = 1.98, 0.69, 9                   q = 0.6213
Date    TT    R. A. (2000) Decl.     Delta      r    Elong.  Phase     V
2023 10 12    03 25 55.8 +12 02 09   0.4960  1.4343   145.3    23.3    25.3
...
2023 10 27    03 25 53.8 +14 08 53   0.2911  1.2712   159.8    15.7    23.6
...
2023 11 04    03 18 42.3 +16 57 02   0.1921  1.1812   169.2     9.1    22.3
...
2023 11 10    03 03 04.8 +21 49 00   0.1225  1.1126   175.0     4.5    21.0
2023 11 11    02 58 21.4 +23 10 48   0.1114  1.1011   173.9     5.4    20.8
2023 11 12    02 52 27.9 +24 49 31   0.1005  1.0896   172.0     7.3    20.6
...
2023 11 18    00 44 00.6 +47 42 34   0.04378 1.0205   135.7    42.5    19.8
...
2023 11 26    16 52 20.4 +14 52 40   0.07470 0.9289    37.6   139.6    25.9
...
2023 12 11    16 05 54.8 -03 00 37   0.2473  0.7682    25.1   147.0    29.2
A. U. Tomatic                (C) Copyright 2023 MPC           M.P.E.C. 2023-V207
    
    
More information about the Iaude
mailing list